sat.trackr.live / text

‹ back to catalog

KINEIS-3C

NORAD 61220 · 2024-172A

PAYLOAD ACTIVE UNKNOWN

§ Identity

Operator
Country
FR
Launch date
2024-09-20
Launch site
RLLB
Launch vehicle
Mass (kg)
RCS (m²)

External: N2YO · Heavens-Above · Gunter

§ Orbital elements

Epoch: 2026-09-22T17:35:31.679520Z

Period
97.80 min
Inclination
98.0409°
Eccentricity
0.0001732
Mean motion
14.72339081 rev/d
Perigee alt
652.4 km
Apogee alt
654.8 km
Semi-major
7,031.7 km
B*
1.9266e-4
RAAN
354.5842°
Arg perigee
151.2053°
Mean anomaly
208.9250°
Rev number
10,742

§ Raw data

KINEIS-3C1 61220U 24172A   26265.73300555  .00001169  00000+0  19266-3 0  99992 61220  98.0409 354.5842 0001732 151.2053 208.9250 14.72339081107422

JSON: /api/v1/satellites/61220 · /tle

For live sub-satellite position, see the globe view (requires WebGL).

§ Visibility from observer

Set your observer location to see the next 7 days of passes ≥ 10°. The values pass through the URL so the page stays shareable.

No JS? Fill the form by hand. The geolocation button needs JavaScript.

§ Radio — SatNOGS DB

ModeDescriptionDownlinkUplink
BPSK S-band telemetry 2.265 GHz
FM Telemetry 400.662 MHz

2 transmitters · refreshed weekly from db.satnogs.org